TimeCDT,TemperatureF,Dew PointF,Humidity,Sea Level PressureIn,VisibilityMPH,Wind Direction,Wind SpeedMPH,Gust SpeedMPH,PrecipitationIn,Events,Conditions,WindDirDegrees,DateUTC
12:53 AM,55.0,55.0,100,29.94,10.0,Calm,Calm,-,N/A,,Clear,0,2013-06-07 05:53:00
1:53 AM,54.0,54.0,100,29.94,7.0,Calm,Calm,-,N/A,,Clear,0,2013-06-07 06:53:00
2:53 AM,53.1,52.0,96,29.94,8.0,Calm,Calm,-,N/A,,Clear,0,2013-06-07 07:53:00
3:53 AM,53.1,52.0,96,29.94,9.0,Calm,Calm,-,N/A,,Clear,0,2013-06-07 08:53:00
4:53 AM,51.1,51.1,100,29.94,9.0,Calm,Calm,-,N/A,,Clear,0,2013-06-07 09:53:00
5:53 AM,51.1,50.0,96,29.96,8.0,Calm,Calm,-,N/A,,Clear,0,2013-06-07 10:53:00
6:53 AM,53.1,52.0,96,29.97,9.0,Calm,Calm,-,N/A,,Clear,0,2013-06-07 11:53:00
7:53 AM,57.0,55.0,93,29.97,10.0,Calm,Calm,-,N/A,,Clear,0,2013-06-07 12:53:00
8:53 AM,63.0,57.9,84,29.98,10.0,Calm,Calm,-,N/A,,Clear,0,2013-06-07 13:53:00
9:53 AM,69.1,55.9,63,29.98,10.0,Variable,3.5,-,N/A,,Clear,0,2013-06-07 14:53:00
10:53 AM,72.0,55.9,57,29.98,10.0,NNW,8.1,-,0.01,,Partly Cloudy,340,2013-06-07 15:53:00
11:53 AM,72.0,53.1,51,29.98,10.0,NNW,10.4,16.1,N/A,,Mostly Cloudy,340,2013-06-07 16:53:00
12:53 PM,75.0,55.0,50,29.96,10.0,NNW,15.0,-,N/A,,Scattered Clouds,330,2013-06-07 17:53:00
1:53 PM,73.9,53.1,48,29.95,10.0,North,5.8,-,N/A,,Mostly Cloudy,360,2013-06-07 18:53:00
2:53 PM,75.0,54.0,48,29.94,10.0,NNW,4.6,-,N/A,,Mostly Cloudy,330,2013-06-07 19:53:00
3:53 PM,73.0,53.1,49,29.93,10.0,NNW,4.6,-,N/A,,Mostly Cloudy,340,2013-06-07 20:53:00
4:53 PM,75.9,54.0,46,29.91,10.0,WNW,10.4,-,N/A,,Scattered Clouds,300,2013-06-07 21:53:00
5:53 PM,73.9,54.0,50,29.91,10.0,WNW,5.8,-,N/A,,Partly Cloudy,290,2013-06-07 22:53:00
6:53 PM,73.9,54.0,50,29.90,10.0,NW,8.1,-,N/A,,Partly Cloudy,320,2013-06-07 23:53:00
7:53 PM,70.0,54.0,57,29.91,10.0,NW,4.6,-,N/A,,Clear,310,2013-06-08 00:53:00
8:53 PM,64.0,55.9,75,29.92,10.0,Calm,Calm,-,N/A,,Clear,0,2013-06-08 01:53:00
9:53 PM,60.1,55.9,86,29.93,10.0,Calm,Calm,-,N/A,,Clear,0,2013-06-08 02:53:00
10:53 PM,57.9,55.0,90,29.95,10.0,Calm,Calm,-,N/A,,Clear,0,2013-06-08 03:53:00
11:53 PM,55.9,55.0,97,29.95,10.0,Calm,Calm,-,N/A,,Clear,0,2013-06-08 04:53:00